User: anonymous   Login
Location: Owatonna
(44.0840°N, 93.2260°W)
Time: 18:08:29
(UTC-06:00)
Language:

Cosmos 839 Rocket - Orbit

View from above orbital plane
View from above orbital plane
View from above satellite
View from above satellite

Ground track
Ground track

The orbit data is extracted from the following two-line orbital elements,

1 09013U 76067B   14324.21699464 -.00000046  00000-0  28490-4 0  5617
2 09013 065.8682 031.4258 0706171 081.1775 317.9291 12.35309890730545
Epoch (UTC): 20 November 2014 05:12:28
Eccentricity: 0.0706171
inclination: 65.8682°
perigee height: 968 km
apogee height: 2085 km
right ascension of ascending node: 31.4258°
argument of perigee: 81.1775°
revolutions per day: 12.35309890
mean anomaly at epoch: 317.9291°
orbit number at epoch: 73054

The dashed part of the orbit path shows where the satellite is in the earth's shadow,  

DLR